Location: Madrid
(40.4167°N, 3.7036°W)
Time: 02:01:16
(UTC+00:00)

ISS - Pass Details

Date: 11 May 2026
Orbit: 414 x 424 km, 51.6° (Epoch: 15 May)

Event Time Altitude Azimuth Distance (km) Brightness Sun altitude
Rises 21:15:25 0° 273° (W) 2,346 0.8 -18.7°
Reaches altitude 10° 21:17:55 10° 292° (WNW) 1,486 0.0 -19.0°
Maximum altitude 21:20:24 19° 341° (NNW) 1,054 -0.9 -19.3°
Drops below altitude 10° 21:22:54 10° 29° (NNE) 1,491 -0.8 -19.6°
Sets 21:25:25 0° 48° (NE) 2,357 0.1 -20.0°
